Location: Fak?rg?dem
(16.4952°N, 80.6487°E)
Time: 19:11:44
(UTC+00:00)

Daily predictions for brighter satellites

Satellite Brightness Start Highest point End
(mag) Time Altitude Azimuth Time Altitude Azimuth Time Altitude Azimuth
Centaur D-1A AC-35 4.3 12:06:20 10° WNW 12:11:04 49° NNE 12:33:43 10° E
Cosmos 1943 Rocket 3.0 12:52:57 10° SSW 12:58:27 56° WNW 13:03:54 10° N
Cosmos 1486 Rocket 4.3 12:54:17 10° NNW 12:59:30 75° WSW 13:04:45 10° S
STARLINK-1042 3.9 12:57:48 10° SSW 13:01:49 50° SE 13:05:48 10° NE
SEDSat Delta rocket 2.9 13:00:41 10° NW 13:04:41 63° NNE 13:08:49 10° ESE
STARLINK-1056 3.7 13:02:42 10° SSW 13:06:45 58° SE 13:10:48 10° NE
YAOGAN 6 3.7 13:06:23 10° S 13:09:49 49° W 13:13:14 10° NNW
STARLINK-1054 3.6 13:07:38 10° SSW 13:11:44 68° SE 13:15:49 10° NE
Cosmos 1354 Rocket 4.0 13:08:00 10° N 13:13:13 63° ENE 13:18:23 10° SSE
STARLINK-1062 3.6 13:12:33 10° SSW 13:16:40 79° SE 13:20:48 10° NE
STARLINK-1053 3.6 13:17:31 10° SW 13:21:38 90° W 13:25:46 10° NE
Okean-O 4.0 13:19:11 10° S 13:23:24 44° W 13:27:37 10° NNW
Cosmos 968 Rocket 4.0 13:19:16 10° NNW 13:24:25 64° WSW 13:29:35 10° S
STARLINK-1061 3.7 13:22:29 10° SW 13:26:37 78° NW 13:30:44 10° NNE
Meteor 1-10 Rocket 4.2 13:24:33 10° N 13:30:07 87° E 13:35:39 10° S
STARLINK-1067 3.9 13:27:28 10° SW 13:31:34 67° NW 13:35:40 10° NNE
Cosmos 1340 2.8 13:29:15 10° S 13:33:00 77° W 13:36:45 10° N
Cosmos 2369 Rocket 4.1 13:30:54 10° SW 13:35:49 31° WNW 13:40:46 10° N
Cosmos 1470 Rocket 3.7 13:31:44 10° S 13:36:02 77° W 13:40:21 10° N
Cosmos 1656 Rocket 3.7 13:30:43 10° SSW 13:36:08 84° WNW 13:41:39 10° NNE
STARLINK-1058 4.1 13:32:30 10° SW 13:36:33 58° NW 13:40:37 10° NNE
FALCON 9 R/B 3.4 13:33:02 10° SW 13:38:13 62° SE 13:56:22 19° ENE
STARLINK-1043 4.4 13:37:30 10° SW 13:41:30 50° NW 13:45:28 10° NNE
Cosmos 1464 Rocket 4.2 13:38:37 10° SSE 13:44:36 47° E 13:50:38 10° NNE
CZ-2D R/B 3.8 13:47:24 10° S 13:51:13 60° W 13:55:02 10° NNW
Chunghua 1 4.5 13:47:45 10° WSW 13:51:24 76° NNW 13:52:37 39° NE
SL-4 R/B 4.0 13:48:54 10° N 13:50:59 17° NNE 13:50:59 17° NNE
Centaur D-1AR AC-39 3.3 13:26:21 10° W 13:52:45 63° N 13:55:48 28° ENE
Centaur D AC-28 3.6 13:44:16 10° WNW 13:53:31 28° NNW 13:56:02 18° NNE
Cosmos 1862 Rocket 3.4 13:54:04 10° N 13:58:24 74° E 14:02:45 10° S
Lacrosse 5 1.7 13:53:42 10° SSW 13:58:46 77° ESE 14:01:21 29° NE
USA 267 3.6 13:52:52 10° NNE 13:59:17 62° NW 14:05:43 10° SW
Abrixas rocket 4.3 13:56:58 10° NNW 13:57:38 14° N 13:57:38 14° N
Cosmos 1346 Rocket 4.2 13:56:03 10° SSW 13:59:51 40° W 14:03:37 10° NNW
Centaur AC-112 3.2 13:59:12 10° NW 14:02:17 55° NNE 14:04:54 33° E
GPS 2-15 Rocket1 3.3 13:58:16 10° W 14:02:54 64° SSW 14:04:29 39° SE
Cosmos 2034 Rocket 4.1 13:57:11 10° SSE 14:03:04 46° E 14:08:54 10° NNE
Hubble Space Telescope 2.7 14:00:38 10° NW 14:03:36 19° N 14:04:34 17° N
Atlas 2A Centaur Rocket 3.4 14:01:38 10° NW 14:04:18 17° N 14:04:18 17° N
Cosmos 1812 4.0 14:03:42 10° NNW 14:07:20 41° W 14:10:58 10° SSW
Meteor 1-14 Rocket 4.1 14:01:54 10° S 14:07:24 63° E 14:12:51 10° NNE
Cosmos 468 Rocket 3.9 14:02:32 10° S 14:07:44 86° ESE 14:12:20 14° NNE
Cosmos 1869 Rocket 4.0 14:03:46 10° S 14:07:07 43° SE 14:07:07 43° SE
Meteor 1-20 Rocket 4.4 14:03:21 10° SSW 14:08:46 71° W 14:14:12 10° N
Yuri Rocket 3.7 14:05:55 10° NW 14:10:36 39° NNE 14:10:43 38° NNE
Cosmos 192 4.4 14:10:58 10° SSW 14:15:52 76° WNW 14:19:12 21° N
Cosmos 220 Rocket 3.9 14:13:04 10° S 14:17:03 70° SSE 14:17:03 70° SSE
Cosmos 1570 Rocket 4.0 14:18:15 10° S 14:22:45 59° SE 14:22:45 59° SE
Cosmos 1777 Rocket 4.0 14:21:16 10° NNW 14:26:31 77° WSW 14:31:38 10° S
ASTRO E2 3.5 14:24:29 10° WSW 14:27:28 48° W 14:27:28 48° W
Intelsat 5-1 Rocket 4.2 14:24:02 10° WNW 14:29:52 55° N 14:34:27 38° ENE
IRS-1A Rocket 4.2 14:28:00 10° S 14:33:36 80° WSW 14:39:07 10° NNW
CZ-3A R/B 2.9 14:10:28 10° WSW 14:34:15 69° SSE 14:35:30 58° ESE
Cosmos 1763 Rocket 4.1 14:33:44 10° SSW 14:38:43 54° WNW 14:40:30 36° NNW
Ariane Rocket 3.9 14:41:24 10° S 14:46:15 47° WSW 14:51:08 10° NNW
H-2A R/B 3.7 14:49:50 25° NNW 14:49:50 25° NNW 14:51:57 10° NNW
FALCON 9 R/B 3.7 14:59:09 10° NW 15:07:22 36° NNW 15:07:22 36° NNW
VEP-3 4.0 22:07:34 41° SE 22:07:34 41° SE 22:17:45 10° ENE
USA 229 DEB 4.5 22:18:28 53° ENE 22:18:28 53° ENE 22:25:31 10° SE
USA 229 4.5 22:18:30 52° ENE 22:18:30 52° ENE 22:25:35 10° SE
Mugunghwa Rocket 4.5 22:36:19 82° ENE 22:36:19 82° ENE 22:44:33 10° ENE
Ariane H10+ 4.4 22:53:46 29° SSW 22:53:46 29° SSW 22:57:24 10° SE
SWIFT 4.2 22:57:51 26° ENE 22:57:51 26° ENE 22:59:57 10° ENE
Palapa 6 Rocket 4.3 22:55:21 69° NW 22:56:18 78° NNE 23:04:09 10° E
Cosmos 676 Rocket 4.1 23:01:15 71° E 23:01:15 71° E 23:06:22 10° NNE
STARLINK-1042 4.3 23:12:34 51° ENE 23:12:34 51° ENE 23:16:12 10° SE
Cosmos 1992 Rocket 4.1 23:14:25 61° SSW 23:14:25 61° SSW 23:18:47 10° S
STARLINK-1056 4.0 23:17:19 61° ENE 23:17:19 61° ENE 23:21:11 10° SE
Palapa B4 Rocket 4.0 23:18:48 49° SW 23:19:39 53° SSW 23:27:25 10° ESE
NOSS 3-1 (C) 4.3 23:16:50 41° WNW 23:19:45 57° WSW 23:28:25 10° S
Delta 7925 Rocket 4.2 23:19:41 34° N 23:20:04 34° NNE 23:24:17 10° ENE
Cosmos 967 Rocket 4.3 23:19:03 38° SW 23:21:36 70° WNW 23:28:00 10° NNE
STARLINK-1054 3.7 23:22:07 73° ENE 23:22:07 73° ENE 23:26:12 10° SE
Gbstr 26 Del rocket 4.4 23:21:02 43° WNW 23:23:34 63° SW 23:31:36 10° SSE
Atlas Centaur 2 3.3 23:22:33 40° WNW 23:24:51 50° NNW 23:33:06 10° NE
ISS -1.1 23:27:47 13° NNE 23:27:47 13° NNE 23:28:11 10° NNE
STARLINK-1062 3.5 23:26:53 80° N 23:27:03 84° NE 23:31:11 10° SE
Meteor 2-3 Rocket 3.7 23:21:17 10° N 23:27:05 89° E 23:32:54 10° S
Cosmos 1605 Rocket 3.9 23:24:29 19° NNW 23:28:47 54° W 23:34:40 10° SSW
STARLINK-1053 3.4 23:31:40 74° NW 23:32:01 85° SW 23:36:09 10° SE
Fermi 4.2 23:32:27 46° N 23:32:27 46° N 23:36:11 10° ENE
STARLINK-1061 3.5 23:36:26 62° WNW 23:36:58 73° SW 23:41:05 10° SSE
STARLINK-1067 3.5 23:41:12 52° WNW 23:41:56 63° SW 23:46:00 10° SSE
CZ-3 R/B 3.6 23:29:12 25° WNW 23:45:57 55° SW 23:54:02 10° SE
Cosmos 292 Rocket 4.5 23:46:52 31° WSW 23:46:52 31° WSW 23:50:33 10° SSW
STARLINK-1058 3.7 23:46:01 44° W 23:46:54 54° SW 23:50:56 10° SSE
Cosmos 1153 Rocket 4.4 23:41:27 10° NNW 23:47:29 62° W 23:53:32 10° S
Cosmos 1943 Rocket 2.1 23:42:21 10° NNW 23:47:51 89° WSW 23:53:22 10° SSE
Cosmos 1484 Rocket 4.4 23:46:16 10° NNW 23:47:54 21° NNW 23:47:54 21° NNW
NATO 3D Rocket 3.9 23:47:21 29° WNW 23:50:11 55° N 23:55:01 10° ENE
MOS 1-B 4.3 23:45:49 10° NNE 23:51:38 85° WNW 23:57:26 10° SSW
STARLINK-1043 3.9 23:50:45 37° W 23:51:50 46° SW 23:55:48 10° SSE
PAYLOAD B 4.4 23:46:25 10° NNE 23:51:56 74° ESE 23:57:26 10° S
